Flag for Mexico

Past Weather in 19°41'07"N, 99°11'28"W, Mexico — Yesterday and Last 2 Weeks

Now
77 °F

Scattered clouds.


Feels Like: 78 °F
Forecast: N/A
Wind: 6 mph from East

Location: Mexico City / Licenci

Current Time: Apr 4, 2020 at 2:11:02 pm

Latest Report: Apr 4, 2020 at 12:45 pm


Visibility: 7 mi

Pressure: 30.25 "Hg

Humidity: 32%

Dew Point: 45 °F

Location of 19°41'07"N, 99°11'28"WLocation

Past Weather in 19°41'07"N, 99°11'28"W — Graph

°F

19°41'07"N, 99°11'28"W Temperature Yesterday

Maximum temperature yesterday: 81 °F (at 2:51 pm)
Minimum temperature yesterday: 54 °F (at 6:45 am)
Average temperature yesterday: 65 °F

High & Low Weather Summary for the Past Weeks

 TemperatureHumidityPressure
High88 °F (Mar 25, 3:50 pm)88% (Mar 22, 3:41 am)30.49 "Hg (Mar 22, 3:41 am)
Low52 °F (Mar 23, 6:41 am)4% (Mar 23, 1:49 pm)29.49 "Hg (Mar 28, 2:54 pm)
Average70 °F37%30.14 "Hg
* Reported Mar 20 12:41 pm — Apr 4 12:45 pm, 19°41'07"N, 99°11'28"W. Weather by CustomWeather, © 2020

Note: Actual official high and low records may vary slightly from our data, if they occured in-between our weather recording intervals... More about our weather records

19°41'07"N, 99°11'28"W Weather History for the Previous 24 Hours

Scroll right to see more
 ConditionsComfort  
Time TempWeatherWind HumidityBarometerVisibility
12:45 pm
Sat, Apr 4
77 °FScattered clouds.6 mph32%30.25 "Hg7 mi
12:28 pm75 °FScattered clouds.6 mph36%30.27 "Hg7 mi
11:45 am72 °FScattered clouds.6 mph41%29.80 "Hg7 mi
10:46 am70 °FBroken clouds.3 mph46%30.31 "Hg7 mi
10:22 am68 °FBroken clouds.3 mph49%30.31 "Hg7 mi
9:45 am64 °FBroken clouds.6 mph56%30.31 "Hg7 mi
8:45 am61 °FBroken clouds.3 mph63%29.92 "Hg9 mi
7:47 am57 °FPartly sunny.5 mph77%30.27 "Hg9 mi
6:43 am55 °FScattered clouds.No wind82%30.24 "Hg9 mi
5:45 am54 °FPassing clouds.No wind88%29.77 "Hg10 mi
4:45 am55 °FPassing clouds.No wind82%30.21 "Hg10 mi
3:47 am57 °FPartly cloudy.5 mph77%30.20 "Hg10 mi
2:47 am59 °FPartly cloudy.8 mph72%29.65 "Hg10 mi
1:54 am61 °FPartly cloudy.5 mph59%30.23 "Hg10 mi
12:45 am59 °FPartly cloudy.3 mph68%30.28 "Hg10 mi
10:42 pm
Fri, Apr 3
57 °FPartly cloudy.9 mph77%30.36 "Hg10 mi
9:44 pm55 °FThunderstorms. Mostly cloudy.17 mph77%30.33 "Hg9 mi
9:16 pm54 °FThunderstorms. Overcast.14 mph82%30.32 "Hg7 mi
8:53 pm54 °FThunderstorms. Overcast.25 mph88%30.29 "Hg5 mi
8:39 pm54 °FStrong thunderstorms. Overcast.16 mph88%30.27 "Hg4 mi
7:58 pm70 °FLight rain. Overcast.17 mph40%30.19 "Hg8 mi
6:55 pm73 °FOvercast.7 mph36%30.17 "Hg9 mi
5:53 pm73 °FCloudy.7 mph36%29.67 "Hg8 mi
4:42 pm73 °FCloudy.12 mph38%30.13 "Hg8 mi
4:22 pm75 °FCloudy.14 mph34%30.14 "Hg8 mi
3:53 pm79 °FCloudy.9 mph28%30.14 "Hg7 mi
2:51 pm81 °FScattered clouds.7 mph26%29.60 "Hg7 mi
Weather by CustomWeather, © 2020

See weather overview

Advertising